SCP
0 0 0 0 0 0 0 0 0 0 0 0 0 0 0 0 0 0 0 0 1 1 1 1 2 2 2 2 2 2 1 1 1 1 1 1 1 1 1 1 1 1 1 1 1 1 1 1 1
0 0 0 0 0 0 0 0 0 0 0 0 0 0 0 0 0 0 0 0 1 1 1 1 2 2 2 2 2 2 1 1 1 1 1 1 1 1 1 1 1 1 1 1 1 1 1 1 1
0 0 0 0 0 0 0 0 0 0 0 0 0 0 0 0 0 1 1 0 1 1 1 1 2 2 2 2 2 2 1 1 1 1 1 1 1 1 1 1 1 1 1 1 1 1 1 2 2
0 0 0 0 0 0 0 0 0 0 0 0 0 0 0 0 0 1 1 1 1 1 1 2 2 2 2 2 2 2 1 1 1 1 1 1 1 1 1 1 1 1 1 1 1 1 2 2 2
0 0 0 0 0 0 0 0 0 0 0 0 0 0 0 0 1 1 1 1 1 1 2 2 2 2 2 2 2 2 1 1 1 1 1 1 1 1 1 1 1 1 1 2 2 2 2 2 2
0 0 0 0 0 0 0 0 0 0 0 0 0 0 0 1 1 1 1 1 1 1 2 2 2 2 2 2 2 2 2 1 1 1 1 1 1 1 1 1 1 1 1 1 2 2 2 2 2
0 0 0 0 0 0 0 0 0 0 0 0 0 0 0 1 1 2 1 1 1 1 1 1 2 2 2 2 2 2 2 1 1 1 1 1 1 1 1 1 1 1 1 1 2 2 2 2 2
0 0 0 0 0 0 0 0 0 0 0 0 0 0 0 1 2 2 2 2 2 2 1 1 1 1 1 2 2 2 2 1 1 1 1 1 1 1 1 1 1 1 1 1 1 1 2 2 2
0 0 0 0 0 0 0 0 0 0 0 0 0 0 0 1 2 2 2 2 2 2 2 1 1 1 1 1 1 2 2 1 1 1 1 1 1 1 1 1 1 1 1 1 1 1 1 1 1
0 0 0 0 0 0 0 0 0 0 0 0 0 0 0 1 1 2 2 2 2 2 2 2 2 1 1 2 2 2 2 2 1 1 1 1 1 1 1 1 1 1 1 1 1 1 1 1 1
0 0 0 0 0 0 0 0 0 0 0 0 0 0 0 0 1 1 2 2 2 2 2 2 2 2 2 2 2 2 2 2 2 1 1 1 1 1 1 1 1 1 1 1 1 1 1 1 1
0 0 0 0 0 0 0 0 0 0 0 0 0 0 0 0 0 0 1 1 1 2 2 2 2 2 2 2 3 3 3 2 2 1 1 1 1 1 1 1 1 1 1 1 1 1 1 1 1
0 0 0 0 0 0 0 0 0 0 0 0 0 0 0 0 0 0 0 0 1 1 1 1 2 2 2 2 3 3 3 2 2 2 1 2 1 1 1 1 1 1 1 1 1 1 1 0 0
0 0 0 0 0 0 0 0 0 0 0 0 0 0 0 0 0 0 0 0 0 0 0 1 1 2 2 2 3 3 3 2 2 2 2 1 1 1 1 1 1 1 1 1 1 1 0 0 0
0 0 0 0 0 0 0 0 0 0 0 0 0 0 0 0 0 0 0 0 0 0 0 0 1 1 2 2 2 3 3 2 2 2 2 1 1 1 1 1 1 1 1 2 1 1 1 0 0
0 0 0 0 0 0 0 0 0 0 0 0 0 0 0 0 0 0 0 0 0 0 0 0 0 0 1 1 2 2 2 2 2 2 2 1 1 1 1 1 1 1 1 1 1 1 1 0 0
0 0 0 0 0 0 0 0 0 0 0 0 0 0 0 0 0 0 0 0 0 0 0 0 0 0 0 1 1 2 2 2 2 2 2 1 1 0 1 1 1 1 1 1 1 1 1 1 0
0 0 0 0 0 0 0 0 0 0 0 0 0 0 0 0 0 0 0 0 0 0 0 0 0 0 0 0 1 1 2 2 2 2 1 1 1 0 1 1 1 1 1 1 1 1 1 1 0
0 0 0 0 0 0 0 0 0 0 0 0 0 0 0 0 0 0 0 0 0 0 0 0 0 0 0 0 0 1 2 2 2 2 1 1 1 0 1 1 1 1 1 1 1 1 0 0 1
0 0 0 0 0 0 0 0 0 0 0 0 0 0 0 0 0 0 0 0 0 0 0 0 0 0 0 0 0 1 2 3 2 2 1 1 1 1 0 0 1 1 1 1 1 1 0 0 0
0 0 0 0 0 0 0 0 0 0 0 0 0 0 0 0 0 0 0 0 0 0 0 0 0 0 0 0 0 1 2 2 2 1 1 1 1 1 0 0 0 1 1 1 1 1 1 0 0
0 0 0 0 0 0 0 0 0 0 0 0 0 0 0 0 0 0 0 0 0 0 0 0 0 0 0 0 0 1 2 2 1 1 1 1 1 1 0 0 0 0 0 1 1 1 1 0 0
0 0 0 0 0 0 0 0 0 0 0 0 0 0 0 0 0 0 0 0 0 0 0 0 0 0 0 0 0 0 1 1 0 0 1 1 1 1 1 0 0 0 0 1 1 1 0 0 0
0 0 0 0 0 0 0 0 0 0 0 0 0 0 0 0 0 0 0 0 0 0 0 0 0 0 0 0 0 0 0 0 0 0 0 1 1 1 1 0 0 0 0 0 1 1 0 0 0
0 0 0 0 0 0 0 0 0 0 0 0 0 0 0 0 0 0 0 0 0 0 0 0 0 0 0 0 0 0 0 0 0 0 0 0 1 1 1 0 0 0 0 0 1 1 0 0 0
0 0 0 0 0 0 0 0 0 0 0 0 0 0 0 0 0 0 0 0 0 0 0 0 0 0 0 0 0 0 0 0 0 0 0 0 0 1 1 0 0 0 0 0 0 0 0 0 0
0 0 0 0 0 0 0 0 0 0 0 0 0 0 0 0 0 0 0 0 0 0 0 0 0 0 0 0 0 0 0 0 0 0 0 0 0 1 1 0 0 0 0 0 0 0 0 0 0
0 0 0 0 0 0 0 0 0 0 0 0 0 0 0 0 0 0 0 0 0 0 0 0 0 0 0 0 0 0 0 0 0 0 0 0 1 1 1 1 0 0 0 0 0 0 0 0 0
0 0 0 0 0 0 0 0 0 0 0 0 0 0 0 0 0 0 0 0 0 0 0 0 0 0 0 0 0 0 0 0 0 0 0 1 1 1 1 1 0 0 0 0 0 0 0 0 0
0 0 0 0 0 0 0 0 0 0 0 0 0 0 0 0 0 0 0 0 0 0 0 0 0 0 0 0 0 0 0 0 0 0 1 1 1 1 1 1 0 0 0 0 0 0 0 0 0
Wind_Speed
1 3 4 4 6 7 8 5 4 5 4 2 2 2 3 2 1 5 6 5 5 6 6 7 7 7 7 8 8 8 8 7 7 6 6 5 5 4 4 4 4 4 4 3 3 3 3 4 5
2 4 5 5 7 9 6 6 7 5 4 5 3 2 3 3 4 6 6 5 5 6 5 6 7 7 7 8 8 7 7 7 7 7 6 5 4 3 3 3 3 3 3 3 2 3 3 4 4
3 4 5 5 7 8 4 4 5 5 5 4 4 2 1 4 5 5 5 5 5 6 5 7 6 7 7 7 7 7 6 6 6 6 6 6 5 3 3 3 3 2 2 2 2 2 3 3 4
5 5 5 7 10 7 2 3 5 7 5 3 4 5 4 4 3 5 6 5 6 6 6 7 6 6 7 7 7 6 6 5 5 5 5 5 5 5 3 2 2 2 2 2 2 2 2 3 3
4 5 7 8 9 5 4 2 5 6 6 5 5 5 6 4 4 7 6 6 5 6 5 6 6 6 6 6 6 5 5 5 5 4 4 4 4 4 4 3 2 2 1 1 1 2 2 2 3
5 5 8 11 10 5 4 5 6 7 6 5 5 5 6 6 7 6 6 6 5 5 5 5 6 6 5 5 5 5 4 4 4 4 4 3 3 3 3 3 2 2 1 0 1 1 1 2 2
6 6 7 7 7 7 5 5 7 7 7 6 4 5 7 8 7 6 6 6 5 5 4 4 4 4 5 5 4 4 4 4 4 4 4 3 3 3 3 3 2 2 2 1 1 2 2 2 2
4 5 6 7 8 6 5 5 3 5 5 3 3 5 6 9 7 6 6 5 5 4 3 3 3 3 2 3 4 3 3 3 3 3 3 3 2 2 2 2 2 2 2 2 2 2 3 3 3
5 7 8 7 7 4 6 6 4 1 4 4 2 1 4 10 8 7 6 5 4 3 2 2 2 2 1 1 2 1 1 1 1 1 1 1 1 1 1 1 2 3 2 2 3 3 3 4 4
7 8 7 3 3 3 5 5 5 6 6 6 5 4 7 9 9 8 7 6 5 3 2 1 1 1 0 0 0 0 1 0 1 1 1 1 1 1 2 1 2 2 3 3 3 3 4 4 3
8 8 4 3 2 2 4 4 4 6 7 7 8 9 10 9 8 7 6 5 4 3 2 1 0 0 1 1 1 1 1 1 1 1 1 1 1 1 1 1 1 2 3 3 3 3 3 3 3
6 6 4 3 2 3 4 4 5 7 5 2 4 7 10 10 9 8 6 5 4 3 2 1 1 1 1 1 1 1 1 1 1 1 2 1 1 1 2 2 2 2 2 3 3 3 3 4 4
9 5 4 3 3 3 4 6 5 7 6 3 5 7 9 9 9 7 6 5 4 4 3 2 2 2 1 1 2 2 2 2 2 2 2 2 2 2 2 2 2 3 3 3 3 4 4 4 5
6 6 4 4 5 5 6 7 7 8 6 6 8 9 10 9 9 8 7 6 6 5 4 3 3 2 2 2 2 2 2 2 2 2 2 3 2 2 2 3 3 3 3 3 4 4 4 4 4
4 5 6 7 7 4 5 9 11 8 8 8 9 9 9 9 8 8 8 7 6 5 4 3 3 3 3 3 3 2 2 2 2 2 3 3 3 3 3 3 3 3 3 4 4 4 4 5 5
5 7 7 6 6 6 8 11 6 6 9 9 9 9 9 9 9 8 7 7 6 5 5 4 3 3 3 3 3 3 3 3 3 2 3 3 4 4 3 3 3 3 3 3 4 4 4 5 5
8 9 9 6 6 6 10 9 4 5 8 9 9 9 9 8 9 8 7 6 5 5 5 4 4 4 3 3 3 3 3 4 3 3 3 3 4 4 4 3 3 4 3 3 4 4 4 5 5
9 9 8 8 5 8 10 11 7 6 8 10 9 9 9 9 9 8 7 6 5 5 5 4 4 4 3 3 3 3 3 3 3 3 3 4 4 4 4 4 4 4 3 4 4 5 5 5 5
5 7 7 5 3 7 11 12 11 10 10 11 10 9 9 9 8 6 6 5 5 5 5 5 4 3 3 3 3 3 3 3 3 3 4 4 4 5 4 4 4 4 4 5 5 5 5 5 4
8 8 7 3 3 5 8 13 12 12 13 12 12 11 10 9 7 6 6 5 5 5 5 5 5 4 4 3 3 3 4 4 4 3 4 4 4 4 4 4 4 4 4 5 5 5 4 4 3
11 11 9 5 2 4 6 10 11 9 10 11 11 11 10 9 9 7 7 6 6 5 5 4 5 4 4 4 3 3 3 3 3 4 4 4 5 5 5 5 5 5 5 5 6 6 6 4 4
10 7 7 6 6 4 4 7 6 8 9 11 11 10 10 9 9 8 7 6 6 6 5 5 5 4 4 4 4 5 4 4 5 4 4 5 5 5 5 6 6 6 5 6 6 6 6 6 5
4 3 5 6 7 6 7 8 6 6 9 10 10 9 9 8 8 8 7 7 6 5 5 5 5 4 4 4 5 5 5 5 4 4 5 5 4 4 5 5 6 6 6 7 7 6 6 6 6
8 6 3 3 5 8 9 10 7 6 8 7 7 7 7 7 7 7 6 6 5 4 4 4 5 4 4 4 5 5 6 6 5 5 5 4 3 4 5 5 5 6 6 7 7 6 7 6 7
9 8 4 6 7 8 4 9 8 4 5 5 5 5 5 5 5 5 6 6 5 5 4 4 5 5 4 5 5 5 6 6 6 6 5 5 4 3 4 4 4 5 5 6 6 6 6 6 7
12 11 7 7 7 4 6 10 5 2 3 4 4 4 3 4 4 5 5 6 5 5 5 5 5 5 5 5 5 5 5 5 5 6 5 5 4 4 5 4 4 5 5 5 5 5 6 5 6
9 10 5 3 2 4 7 6 6 4 5 4 3 3 3 3 3 4 4 5 5 5 5 6 6 5 5 5 5 5 5 5 5 5 5 4 4 4 4 4 5 5 5 5 5 5 6 5 5
4 5 5 6 6 8 7 7 5 6 5 3 2 2 2 2 2 3 3 4 4 4 5 5 6 6 5 5 4 4 5 5 5 4 5 5 5 4 4 4 4 4 4 4 4 4 5 5 5
7 7 6 5 5 6 6 3 1 3 3 2 1 1 1 2 2 2 2 3 3 4 4 5 5 5 4 4 4 4 4 4 4 4 4 4 4 4 4 4 4 4 4 4 3 3 3 4 4
6 7 8 6 6 5 5 2 4 2 1 0 1 1 1 1 1 2 2 2 3 3 3 4 4 4 4 4 4 4 4 4 4 4 4 4 4 3 3 3 3 3 3 3 3 3 3 3 3
Wind_Direction
216 208 202 206 213 223 228 208 199 165 173 151 129 181 180 140 63 86 94 113 109 116 112 108 81 76 75 79 81 80 81 79 77 76 78 82 85 86 94 100 94 90 86 88 95 107 121 126 131
210 192 202 213 230 220 211 200 196 179 129 130 138 162 149 108 61 95 121 112 114 112 109 99 86 79 77 79 81 82 80 79 75 72 70 69 75 79 82 92 94 89 78 72 87 94 110 119 124
181 221 213 211 227 232 198 167 178 142 144 166 146 126 97 105 112 113 110 126 125 115 109 97 87 82 78 78 79 80 78 78 76 71 67 64 60 62 74 80 86 94 89 83 85 97 117 115 120
193 194 213 230 224 229 242 128 144 154 160 176 166 136 111 72 95 107 121 135 127 117 109 99 88 85 79 75 75 74 71 72 74 70 65 62 58 51 53 59 68 76 84 99 99 104 129 133 126
218 208 208 221 228 221 218 198 179 180 167 167 180 145 124 104 109 121 128 129 121 111 103 102 87 80 80 79 76 70 67 67 67 64 60 56 52 49 43 43 45 64 81 134 138 133 133 146 148
197 214 219 221 215 208 207 200 197 198 174 163 176 156 123 128 133 126 126 124 113 109 106 104 95 79 75 79 76 69 66 65 61 57 51 47 42 38 38 35 39 39 19 287 208 188 182 169 169
214 214 230 227 218 212 195 183 202 197 188 176 176 159 140 146 133 135 130 122 112 108 106 102 109 104 88 77 71 66 63 59 56 52 43 35 28 21 20 16 13 9 356 331 284 240 226 214 197
235 224 223 218 217 210 163 167 192 205 180 134 194 185 158 149 143 144 135 124 116 112 107 101 100 102 113 104 80 65 59 54 55 50 34 20 15 8 1 353 359 345 331 311 295 266 249 235 219
218 229 224 214 212 186 162 174 152 165 150 154 180 51 100 135 151 154 151 144 133 125 114 111 102 93 84 83 90 97 79 61 52 73 37 314 277 291 286 350 346 324 305 295 284 273 254 250 223
209 229 227 221 221 171 168 187 164 176 180 180 170 148 140 152 166 171 173 169 162 154 140 122 113 80 31 347 229 223 227 209 259 289 293 278 297 301 291 296 300 298 296 278 275 280 255 250 233
208 232 224 216 219 196 186 192 190 199 206 205 191 170 162 171 179 186 187 185 179 172 163 160 163 339 324 301 292 290 281 273 270 286 284 280 287 281 279 262 237 250 259 256 251 247 252 251 245
210 227 229 213 189 204 208 193 203 226 229 189 185 168 171 183 190 195 198 195 188 192 196 208 221 287 301 304 292 272 271 273 278 275 278 278 284 279 280 275 270 262 259 258 256 254 254 259 252
215 213 219 221 208 225 222 224 236 236 228 205 179 180 190 196 199 201 205 204 204 210 217 226 248 260 271 277 278 273 269 270 274 270 266 275 270 264 269 275 275 270 271 262 257 260 255 254 257
203 206 216 228 227 227 225 239 234 233 205 197 193 197 202 204 206 206 207 211 214 217 222 226 239 247 252 257 262 267 265 264 267 263 260 263 269 264 266 267 268 270 272 273 264 262 260 255 255
171 200 228 227 221 209 212 239 227 222 200 203 205 205 207 209 208 212 211 215 218 220 223 226 238 244 249 253 257 259 257 259 264 262 255 258 263 267 269 269 268 272 274 273 266 261 260 260 258
187 209 223 197 201 197 215 243 214 200 203 214 217 215 213 212 214 215 214 218 221 221 220 221 234 248 252 257 259 256 256 255 253 255 257 258 263 264 270 268 268 272 273 273 266 261 261 260 261
202 219 221 198 194 194 217 245 208 198 213 223 223 221 217 214 216 214 214 216 219 219 218 223 234 246 255 259 256 257 256 253 255 252 255 260 262 261 262 265 269 267 265 265 266 261 263 266 264
203 213 217 213 183 206 224 241 234 219 229 233 230 226 221 218 218 214 215 216 218 220 222 226 232 242 250 252 252 253 254 253 255 256 257 259 258 260 259 259 265 266 263 264 264 267 264 265 268
219 216 225 225 202 224 236 249 249 238 233 234 230 224 221 221 216 209 212 211 213 218 224 227 232 232 238 241 244 245 250 258 257 258 260 258 257 255 254 258 257 254 254 260 266 267 267 265 266
216 221 230 234 211 238 257 262 256 244 235 232 230 225 222 221 212 207 211 210 216 220 225 228 229 234 236 240 246 248 257 259 264 265 265 263 260 255 250 252 254 250 250 252 255 258 257 265 254
221 228 229 227 231 243 268 263 237 229 227 228 230 230 225 220 218 210 211 214 220 224 228 233 232 235 238 242 239 248 250 254 257 264 267 264 264 258 255 255 254 250 247 248 249 249 246 251 255
226 227 224 217 223 231 235 273 237 218 221 221 222 221 222 218 217 214 213 217 222 225 226 232 231 232 234 236 235 238 247 255 265 268 265 267 261 257 250 251 251 249 247 246 246 245 245 241 245
201 168 200 219 237 253 224 252 254 214 228 222 215 214 217 219 217 215 214 219 223 220 220 226 231 232 233 238 239 240 250 259 265 264 263 266 262 259 256 252 250 248 246 247 245 246 243 239 241
152 140 147 201 229 244 224 230 252 213 221 214 204 207 216 220 219 219 218 219 220 217 217 224 229 232 236 241 240 241 251 258 264 265 267 267 267 264 258 257 253 250 246 244 243 243 242 242 243
185 178 182 197 212 234 182 226 250 232 221 227 221 217 221 222 220 219 219 220 219 219 221 225 230 236 241 244 247 248 251 254 256 260 261 264 267 269 267 265 261 255 251 247 242 241 240 241 242
197 207 210 215 222 201 186 233 246 233 233 237 243 235 224 220 221 223 223 222 220 220 224 227 232 238 242 246 251 252 255 256 257 257 260 258 262 266 270 267 265 265 261 253 243 242 240 241 241
184 212 242 252 265 250 220 237 261 217 210 214 222 219 220 226 227 225 222 224 223 222 227 230 232 236 239 245 252 256 259 261 261 259 258 258 261 264 262 264 263 261 258 255 249 241 239 239 241
224 175 182 208 217 233 230 233 226 195 202 199 208 222 230 234 235 231 225 225 228 230 232 233 232 234 239 244 250 258 256 258 260 258 256 261 266 263 258 258 258 260 256 252 247 246 233 235 240
177 188 205 212 253 245 237 216 144 183 174 192 207 236 247 242 241 238 237 232 233 236 234 235 237 239 240 244 248 256 257 257 257 258 260 261 263 263 258 258 256 258 258 252 244 243 233 234 242
222 207 198 209 214 236 259 238 84 130 118 194 299 311 293 269 265 262 253 236 233 238 236 235 238 239 241 244 244 249 255 255 253 256 260 262 261 261 264 262 253 252 249 248 244 240 231 234 239